Probability
10 19 48 58 52 61 58 55 65 71 68 71 74 68 77 74 71 71 68 61 61 45 52 55 45 52 55 52 65 61 55 55 58 61 55 61 61 61 52 48 35 26 42
3 19 48 52 65 61 61 58 68 65 55 55 58 61 65 71 65 68 68 71 65 58 58 52 48 52 48 52 61 58 55 52 52 48 52 48 58 52 52 45 39 29 48
10 19 42 68 74 61 61 65 71 61 55 55 48 58 55 52 55 61 65 65 71 65 65 61 61 58 58 55 58 61 58 52 48 45 42 23 29 52 58 45 35 29 42
16 26 42 65 68 61 61 65 74 65 65 65 55 52 52 61 65 48 42 55 55 58 58 55 52 52 55 61 58 61 52 48 39 39 32 23 16 35 55 48 39 35 39
19 29 52 65 65 58 55 58 68 71 68 58 55 58 55 71 71 55 55 48 52 52 58 52 48 55 55 55 55 52 45 35 32 23 23 23 32 32 42 39 35 32 39
23 29 45 61 61 58 58 61 68 68 68 65 55 55 61 71 61 55 55 48 45 48 48 48 48 45 52 52 48 42 35 32 23 16 16 23 32 35 39 35 29 32 32
19 26 42 61 61 61 58 58 68 68 68 68 58 58 58 58 61 48 48 52 52 48 52 48 48 39 42 42 45 35 35 42 13 16 16 19 23 39 29 35 29 32 26
19 26 45 55 58 58 55 61 61 74 71 71 65 65 65 58 55 61 45 42 42 39 42 52 48 45 45 42 39 29 35 26 10 10 19 29 39 29 29 29 32 32 19
13 19 35 39 45 55 55 58 65 74 71 74 68 74 68 55 58 55 52 42 42 32 35 35 39 35 35 39 29 39 32 29 13 16 13 29 32 35 26 29 32 29 26
10 13 23 26 32 32 32 55 52 55 61 61 61 61 65 55 48 45 52 45 45 42 32 29 29 39 35 42 42 39 32 29 19 16 16 32 39 32 32 39 29 29 26
16 16 19 23 23 26 16 26 42 52 55 52 58 52 45 45 39 48 39 48 39 35 35 29 29 35 35 32 45 32 32 29 19 13 26 29 35 26 32 35 23 23 23
19 16 23 23 26 29 29 39 45 32 48 48 52 39 35 45 52 29 42 45 42 42 29 29 32 35 23 32 32 29 29 23 13 13 26 23 35 35 29 32 26 26 19
10 13 19 29 35 32 32 39 45 39 42 42 42 52 48 48 35 35 42 32 39 29 26 26 19 23 23 23 32 26 23 19 16 10 26 32 32 39 35 35 32 32 29
10 13 19 32 42 42 42 39 39 32 39 39 45 42 39 42 42 39 45 32 29 23 29 26 32 19 23 23 23 23 26 23 23 26 42 32 39 32 29 26 23 29 29
19 23 23 35 42 52 55 52 42 42 42 39 48 45 48 45 45 42 48 48 19 23 26 35 32 35 29 29 29 23 19 26 26 29 35 26 29 26 23 26 29 32 32
23 26 32 35 45 55 52 61 45 42 65 45 48 48 52 45 48 45 42 39 32 23 23 19 19 32 32 35 26 32 29 29 35 26 29 32 26 19 19 23 26 19 26
29 29 39 39 42 55 52 48 48 48 45 52 55 61 55 45 52 48 35 39 39 29 26 26 23 32 29 23 29 29 29 35 29 23 23 26 23 26 19 19 23 23 29
32 32 32 29 39 55 58 58 52 45 48 48 52 55 61 55 48 48 39 35 39 32 26 26 26 29 35 29 29 29 32 32 23 32 23 26 26 23 29 29 26 32 32
32 42 45 42 42 48 55 61 58 68 61 52 45 52 55 48 39 35 45 45 39 32 23 26 32 26 29 26 19 29 19 19 19 16 16 16 16 23 32 39 29 32 26
39 45 48 61 61 58 58 61 58 58 55 55 48 55 48 45 42 45 35 42 32 39 39 39 39 42 32 35 19 23 19 19 19 19 19 13 19 23 26 29 39 35 29
45 48 58 55 61 61 61 58 58 52 48 42 45 48 48 48 48 52 39 48 39 45 48 32 29 32 29 32 29 32 23 16 16 26 23 19 19 23 32 35 39 35 39
45 52 65 65 55 61 65 65 61 58 52 45 52 55 52 45 45 32 45 39 42 45 48 52 48 29 32 26 23 35 26 26 29 16 26 26 26 35 32 35 39 45 42
42 48 42 61 61 55 55 52 48 55 52 39 52 52 48 52 48 45 45 39 52 45 42 45 55 45 35 39 35 29 32 29 23 19 32 32 35 35 35 29 35 42 45
42 45 55 52 58 61 52 45 42 45 39 45 48 48 52 52 48 48 48 48 55 45 61 42 42 42 48 32 45 39 32 29 29 26 16 26 32 35 29 26 32 39 45
42 32 42 55 55 61 48 48 42 42 42 39 42 61 55 48 52 48 48 52 55 55 52 48 52 55 45 35 35 32 32 48 32 26 26 32 26 26 26 29 32 39 42
32 32 35 52 52 58 58 55 55 55 52 48 52 55 52 48 52 48 52 52 52 52 55 58 55 52 52 55 48 39 35 26 35 32 29 32 26 19 26 26 26 29 35
Height
5881 5879 5877 5876 5874 5873 5871 5869 5867 5867 5867 5869 5869 5870 5870 5869 5869 5869 5869 5869 5869 5869 5869 5869 5871 5872 5874 5875 5877 5878 5880 5881 5882 5882 5883 5884 5884 5885 5886 5886 5887 5887 5887
5881 5880 5878 5877 5875 5873 5871 5868 5866 5866 5867 5869 5869 5870 5870 5869 5869 5869 5868 5869 5869 5869 5868 5869 5870 5872 5873 5875 5877 5878 5880 5881 5882 5882 5883 5883 5884 5885 5886 5886 5886 5887 5887
5882 5880 5879 5877 5876 5873 5871 5869 5866 5866 5867 5869 5870 5870 5870 5870 5869 5869 5869 5869 5869 5869 5869 5869 5870 5871 5873 5875 5876 5878 5880 5881 5882 5882 5883 5883 5884 5885 5885 5886 5886 5886 5887
5883 5881 5880 5878 5877 5874 5873 5870 5869 5868 5869 5870 5870 5870 5871 5870 5870 5869 5869 5869 5869 5869 5869 5869 5871 5872 5873 5875 5877 5878 5879 5881 5882 5882 5883 5883 5884 5884 5885 5886 5886 5886 5887
5883 5882 5881 5880 5878 5876 5874 5872 5871 5871 5871 5871 5871 5871 5871 5871 5869 5868 5869 5869 5869 5869 5869 5870 5871 5872 5874 5875 5876 5878 5879 5881 5881 5882 5883 5884 5884 5884 5885 5885 5886 5886 5886
5884 5883 5882 5881 5879 5878 5876 5874 5873 5872 5872 5872 5872 5872 5872 5871 5870 5868 5868 5869 5869 5869 5869 5870 5872 5872 5874 5876 5877 5878 5879 5880 5881 5882 5883 5884 5884 5885 5885 5885 5885 5886 5886
5885 5884 5883 5882 5880 5879 5878 5877 5875 5874 5874 5874 5874 5874 5873 5871 5870 5868 5868 5868 5868 5869 5870 5871 5872 5873 5874 5876 5877 5879 5880 5881 5882 5883 5883 5884 5884 5885 5885 5885 5886 5885 5885
5886 5885 5883 5882 5881 5880 5879 5879 5877 5877 5877 5876 5876 5875 5874 5872 5869 5866 5867 5868 5868 5869 5870 5871 5872 5873 5875 5876 5877 5878 5879 5881 5881 5882 5883 5884 5884 5885 5885 5885 5885 5885 5885
5886 5885 5884 5883 5882 5881 5881 5880 5879 5879 5879 5878 5877 5876 5875 5873 5869 5865 5866 5866 5867 5868 5870 5871 5873 5873 5874 5875 5876 5878 5879 5880 5881 5882 5883 5884 5884 5884 5885 5885 5885 5884 5884
5888 5887 5885 5884 5883 5883 5882 5882 5881 5881 5880 5879 5879 5878 5877 5875 5872 5869 5867 5867 5867 5868 5870 5872 5874 5874 5874 5874 5875 5877 5879 5880 5880 5882 5883 5884 5884 5884 5884 5884 5884 5884 5884
5889 5888 5887 5886 5885 5884 5884 5883 5883 5882 5882 5881 5880 5879 5879 5877 5875 5873 5872 5871 5870 5871 5872 5874 5875 5875 5874 5874 5875 5877 5879 5880 5881 5882 5883 5884 5884 5884 5884 5884 5884 5884 5883
5891 5889 5888 5887 5886 5886 5886 5885 5885 5884 5883 5882 5882 5881 5880 5879 5878 5877 5876 5875 5874 5874 5875 5876 5877 5877 5876 5876 5877 5878 5880 5881 5881 5882 5883 5883 5883 5883 5883 5883 5883 5883 5883
5892 5891 5890 5889 5888 5888 5887 5887 5886 5885 5885 5884 5883 5882 5882 5881 5880 5879 5879 5878 5878 5877 5877 5878 5878 5879 5879 5879 5879 5880 5881 5881 5882 5882 5883 5883 5883 5883 5883 5883 5883 5883 5883
5894 5893 5892 5891 5890 5889 5888 5888 5887 5887 5886 5886 5885 5884 5884 5883 5882 5881 5880 5880 5879 5879 5879 5879 5880 5880 5880 5880 5880 5881 5882 5882 5883 5883 5883 5883 5883 5883 5882 5882 5882 5882 5882
5896 5895 5894 5893 5892 5891 5890 5889 5889 5888 5888 5887 5886 5885 5885 5884 5883 5882 5882 5881 5881 5881 5881 5881 5881 5881 5881 5881 5881 5882 5882 5883 5883 5883 5883 5882 5882 5882 5882 5882 5881 5881 5880
5898 5897 5895 5894 5893 5892 5891 5891 5890 5889 5889 5888 5887 5887 5886 5885 5884 5883 5883 5882 5882 5882 5882 5882 5882 5882 5882 5882 5882 5883 5883 5883 5883 5883 5883 5882 5882 5881 5881 5881 5880 5880 5879
5899 5898 5897 5896 5895 5894 5893 5892 5891 5890 5890 5889 5888 5888 5887 5886 5886 5885 5884 5883 5883 5883 5883 5883 5883 5883 5883 5883 5883 5883 5883 5883 5883 5883 5882 5882 5881 5881 5881 5880 5879 5879 5878
5900 5899 5898 5897 5896 5895 5894 5893 5892 5891 5891 5890 5889 5889 5888 5888 5887 5886 5885 5885 5884 5884 5884 5884 5884 5884 5884 5883 5883 5883 5883 5883 5882 5882 5882 5881 5881 5880 5880 5879 5879 5878 5877
5902 5900 5899 5898 5897 5896 5895 5894 5893 5892 5892 5891 5890 5889 5889 5888 5888 5887 5886 5886 5885 5885 5885 5884 5884 5884 5883 5883 5883 5883 5882 5882 5882 5881 5881 5880 5880 5879 5879 5878 5878 5876 5875
5903 5902 5900 5899 5898 5897 5896 5895 5894 5893 5893 5892 5891 5890 5889 5888 5888 5887 5887 5886 5886 5885 5885 5885 5884 5884 5883 5883 5883 5882 5882 5881 5881 5880 5880 5879 5879 5878 5878 5877 5876 5875 5873
5903 5902 5901 5900 5899 5898 5896 5896 5895 5894 5893 5892 5891 5891 5890 5889 5888 5887 5887 5886 5886 5886 5885 5885 5884 5884 5884 5883 5883 5883 5882 5881 5880 5880 5879 5878 5878 5877 5876 5875 5874 5873 5871
5904 5902 5901 5900 5899 5898 5897 5896 5895 5894 5893 5892 5891 5890 5890 5889 5887 5887 5887 5886 5886 5885 5885 5885 5884 5884 5883 5883 5882 5882 5881 5881 5880 5879 5878 5877 5876 5875 5874 5873 5872 5870 5869
5903 5902 5901 5900 5899 5898 5897 5896 5895 5894 5893 5892 5891 5890 5889 5888 5887 5886 5886 5885 5885 5884 5884 5884 5883 5883 5883 5882 5881 5881 5880 5879 5879 5878 5877 5876 5875 5874 5873 5872 5870 5868 5867
5903 5901 5901 5899 5899 5897 5896 5895 5894 5893 5892 5891 5890 5889 5888 5887 5886 5885 5885 5884 5884 5883 5883 5882 5882 5881 5881 5880 5880 5879 5878 5877 5877 5876 5875 5874 5873 5872 5871 5869 5868 5866 5864
5902 5901 5900 5899 5898 5897 5896 5895 5894 5893 5892 5890 5889 5888 5887 5886 5885 5884 5883 5883 5882 5881 5881 5881 5880 5879 5878 5878 5877 5876 5876 5875 5874 5874 5873 5872 5871 5870 5868 5867 5865 5863 5862
5901 5900 5898 5897 5896 5895 5894 5893 5893 5891 5890 5889 5888 5886 5885 5884 5883 5883 5882 5881 5880 5879 5878 5878 5877 5876 5876 5875 5874 5874 5873 5872 5872 5871 5870 5869 5868 5867 5865 5864 5862 5861 5859
Wind_Speed
8 7 8 8 7 6 4 3 2 2 3 5 5 6 5 4 5 5 5 5 5 6 6 7 8 8 8 8 8 8 7 6 5 5 6 5 5 5 4 4 4 3 3
8 7 8 8 7 6 6 4 3 3 4 6 6 6 5 5 5 5 5 5 6 6 6 7 9 9 8 9 8 8 7 6 5 5 5 5 5 4 3 3 4 3 2
8 8 8 8 8 8 7 6 5 5 6 6 6 6 5 5 5 6 6 6 6 6 6 7 8 8 8 9 8 8 7 6 5 5 4 4 4 3 3 4 4 3 2
8 8 7 8 8 8 7 7 6 6 7 7 7 6 6 5 5 5 6 6 6 6 6 7 7 9 9 9 8 8 7 6 6 5 4 4 3 3 3 3 3 2 2
7 7 7 7 8 7 8 8 7 7 8 8 8 7 6 6 5 6 6 6 6 7 7 7 8 9 9 9 8 7 7 6 6 5 4 3 2 3 3 2 2 2 2
7 7 7 7 7 8 8 9 8 8 9 9 8 8 7 6 6 7 6 6 6 7 8 8 8 9 9 8 8 8 7 7 6 4 4 3 3 4 3 3 2 2 2
7 7 6 6 7 8 8 9 8 8 9 10 9 8 8 7 6 5 6 7 7 8 8 8 8 9 9 8 8 7 7 7 5 4 5 5 4 4 3 2 2 2 2
7 6 5 5 6 7 7 8 8 8 9 9 9 8 8 7 6 5 5 6 8 8 8 8 8 7 8 8 7 7 6 6 5 4 6 5 3 3 2 2 3 3 3
6 6 6 6 6 6 7 7 7 8 8 8 8 8 8 8 8 7 7 6 7 7 8 8 8 8 7 6 7 7 8 7 7 6 5 3 2 2 2 3 3 3 3
7 6 6 6 6 6 7 7 7 7 8 8 8 8 8 9 9 9 8 7 7 7 7 8 8 7 6 5 6 8 8 7 7 4 3 2 2 2 2 2 3 3 4
8 7 7 7 6 6 7 7 7 7 7 8 8 8 8 8 9 9 9 8 8 8 8 8 7 6 5 5 6 5 5 5 4 3 2 3 3 3 2 2 2 3 4
8 8 7 7 7 6 7 7 7 7 7 7 7 7 7 7 8 7 7 7 7 7 6 7 6 6 5 6 6 5 4 3 3 2 2 3 2 2 1 2 2 3 3
8 8 8 7 7 7 6 6 6 6 6 7 7 7 7 6 6 6 6 6 5 5 5 6 7 6 5 5 5 5 4 3 2 1 1 1 2 1 1 2 2 3 3
8 8 8 8 7 7 7 6 5 5 5 5 6 6 6 5 5 5 5 4 4 4 4 5 6 5 4 4 4 4 3 2 2 1 0 1 1 1 1 2 3 3 3
8 8 8 7 7 7 7 7 6 5 4 5 5 5 5 5 5 4 4 4 3 3 3 3 3 3 3 3 3 3 2 2 1 1 1 1 1 1 2 2 3 4 4
7 7 7 7 7 7 7 7 6 5 5 5 5 5 4 4 4 4 4 3 3 3 2 3 2 2 3 2 2 2 2 1 1 0 1 2 2 2 2 3 4 5 5
6 6 6 6 6 5 5 5 5 5 4 4 4 4 4 4 3 3 3 3 3 3 3 2 2 2 3 2 2 2 1 2 2 1 1 1 1 2 3 4 4 5 6
5 5 5 5 5 4 4 4 4 3 3 3 3 3 3 3 3 3 3 3 3 3 2 2 1 1 2 2 1 0 1 1 2 2 2 2 2 3 4 5 5 6 6
4 5 5 5 4 4 3 3 3 3 2 2 3 3 3 3 3 3 3 2 2 2 1 1 1 1 1 1 1 1 1 1 2 3 3 4 4 4 5 6 7 7 8
4 4 4 4 4 4 3 3 3 2 2 3 2 3 3 2 2 2 2 2 2 1 0 0 0 0 1 1 2 2 2 2 3 4 4 5 5 6 6 7 8 9 9
4 4 4 4 4 4 4 3 3 3 3 3 2 2 2 2 2 2 2 1 1 1 1 2 2 2 2 3 3 3 3 3 3 4 5 5 6 6 7 8 9 9 10
4 4 4 4 4 4 4 3 3 4 4 3 3 3 3 3 3 3 3 3 2 2 3 3 3 3 4 4 4 4 4 5 5 5 6 6 7 7 8 9 10 10 11
5 5 5 5 5 5 5 4 4 4 4 4 4 4 5 4 4 4 4 4 4 4 4 4 4 4 5 6 6 6 6 6 6 6 7 8 8 9 9 10 11 11 12
6 6 7 6 6 6 6 6 5 5 5 5 6 6 6 6 5 5 6 6 6 6 6 6 6 6 7 7 8 8 8 8 8 8 8 9 9 10 11 11 12 13 13
8 7 7 7 7 7 7 6 6 6 7 7 7 8 8 8 7 8 8 8 8 8 8 8 9 9 9 9 9 10 10 10 10 10 10 10 11 12 13 13 14 14 14
9 9 8 8 8 8 8 8 8 8 8 8 9 9 10 10 9 10 10 11 11 11 11 11 11 11 11 11 11 12 12 12 12 12 13 12 13 13 14 14 15 16 16
Wind_Direction
66 71 67 57 58 58 59 66 85 114 133 132 132 131 132 134 134 138 146 154 160 166 174 180 185 187 187 182 180 181 185 185 191 197 203 205 210 213 226 235 243 243 248
70 73 68 64 63 59 55 56 77 105 126 128 126 126 128 124 125 132 141 146 149 151 161 165 172 174 173 172 175 179 185 186 196 198 203 206 211 212 227 240 246 255 254
77 73 70 65 62 60 59 62 80 96 115 123 124 123 125 125 123 127 131 137 143 148 152 160 169 173 170 167 174 180 183 186 195 201 201 199 207 210 223 228 239 243 241
74 69 65 65 60 59 61 64 81 93 106 112 114 115 117 123 122 130 133 139 141 145 148 152 156 160 163 168 176 181 183 187 195 203 192 189 202 210 218 221 226 236 234
67 63 60 64 61 63 70 72 84 94 98 105 108 107 107 106 112 136 133 140 141 145 150 148 148 160 168 175 178 182 181 184 192 193 194 188 215 223 226 229 235 228 246
62 61 61 65 66 67 75 77 87 102 103 105 103 100 98 96 102 122 125 137 139 140 144 145 149 162 167 173 180 180 179 178 186 193 202 213 222 223 229 248 242 250 260
60 63 66 67 68 71 75 78 88 102 108 102 102 97 94 93 95 114 130 139 139 141 142 149 155 162 167 172 177 179 181 177 184 198 212 218 220 231 231 247 283 259 267
60 61 63 65 73 76 82 81 86 94 99 101 101 96 92 89 87 104 130 132 135 147 151 150 159 158 166 170 179 179 181 187 190 206 215 221 231 230 221 261 273 267 267
60 64 62 63 71 83 93 92 93 92 92 95 96 95 88 84 85 98 118 127 127 142 149 150 149 152 153 167 181 180 183 195 198 204 208 214 228 244 252 262 268 268 257
58 64 68 68 78 88 94 97 98 97 91 89 88 89 85 84 87 93 98 102 110 121 132 136 134 147 152 163 170 178 181 183 178 182 186 209 230 247 250 264 264 257 263
54 65 72 77 83 89 89 92 95 94 91 85 82 85 83 82 86 93 95 95 101 108 119 123 124 130 128 138 150 154 169 174 174 174 189 209 222 227 232 265 272 269 271
61 65 72 77 79 83 84 86 86 86 87 82 80 82 81 85 89 92 98 98 103 110 115 121 119 114 108 121 136 144 151 158 169 179 199 223 244 256 265 294 289 281 291
63 62 65 75 74 79 85 83 85 86 85 81 78 81 82 85 88 93 99 104 106 112 115 121 122 119 111 116 131 138 141 137 142 138 178 234 264 278 305 320 337 322 312
63 59 63 71 67 71 77 77 80 81 83 86 83 85 81 78 84 88 87 97 106 115 118 129 127 130 126 125 135 143 152 145 137 116 91 324 323 326 327 319 316 313 309
58 60 60 59 58 60 62 67 73 81 80 76 84 81 84 86 87 89 84 84 92 103 104 118 131 133 129 141 156 163 154 135 126 103 356 339 340 332 330 321 299 302 304
53 54 53 55 57 58 57 58 62 68 73 82 80 80 83 89 89 86 91 95 97 99 94 89 97 107 133 142 152 157 175 204 224 229 312 311 313 321 319 306 301 309 306
47 52 53 52 54 57 59 59 64 66 72 74 68 72 69 73 75 88 90 92 93 95 99 90 82 110 120 124 136 158 197 229 245 243 284 297 308 311 315 322 322 316 310
40 43 46 45 46 54 56 55 63 66 71 76 66 56 65 62 59 50 57 67 73 79 81 81 91 96 97 110 121 154 239 249 260 247 264 279 290 305 306 311 319 319 315
29 26 30 30 33 38 39 43 42 42 51 57 46 47 58 51 49 46 48 55 75 80 82 92 118 104 89 74 22 354 339 307 305 291 283 287 292 295 302 311 309 309 311
13 11 16 19 20 16 9 2 1 9 14 11 21 30 34 36 46 36 26 35 52 55 48 12 19 42 15 334 339 335 328 323 312 300 293 297 298 299 299 306 310 310 310
1 359 2 5 7 5 0 345 332 324 325 337 350 358 3 4 350 344 6 11 16 2 335 327 329 326 315 315 322 319 317 313 309 306 305 304 304 304 305 308 308 309 309
346 342 339 339 341 340 344 337 327 320 320 322 317 311 315 320 320 322 324 327 320 317 312 302 306 308 307 304 304 305 307 305 305 309 310 307 305 307 306 307 311 310 311
314 313 314 319 319 317 316 319 313 306 303 309 310 305 303 301 298 296 297 301 302 303 302 295 292 294 298 296 294 297 299 299 299 300 300 301 302 305 307 307 310 311 313
297 301 303 304 308 310 309 309 301 291 288 291 296 300 301 297 290 288 292 294 294 294 292 289 286 287 288 289 289 288 288 290 294 294 292 293 296 300 303 305 306 310 312
287 292 294 295 298 304 303 301 296 291 288 289 295 298 296 292 286 286 290 289 288 286 285 284 284 283 284 285 283 284 284 286 286 287 288 291 293 297 300 303 306 308 310
281 285 291 292 291 294 294 294 293 291 290 289 291 293 292 291 288 287 288 287 286 283 282 282 281 279 279 281 280 281 283 283 285 284 285 287 289 292 296 299 302 304 305